Preview of NWS' New Version of Forecast
This preview is not operational and should not be used for support decisions.
Latest weather observations around

Huntsville, Huntsville International / Jones Field (KHSV)

Using English Units (Switch to International System of Units)
Date/ Time (CST) Wind (mph) Vis. (mi) Weather Sky Cond. Temp (°F) Rel. Humidity Wind Chill (°F) Heat Index (°F) Pressure Precip. (in)
Air Dwpt 6 hour Altimeter (inHg) Sea level (inHg) 1 hr 3 hr 6 hr
Max Min
Feb 21 16:08 NNE 15 1.5 Heavy Rain and Fog/Mist BKN028 BKN033 OVC055 48 47     96% 42   30.1   0    
Feb 21 15:53 NNE 15 1.5 Heavy Rain and Fog/Mist FEW007 BKN034 OVC055 48 47     96% 42   30.09 30.09 0    
Feb 21 15:22 NE 7 1.5 Rain and Fog/Mist SCT007 BKN030 OVC040 48 47     96% 45   30.1   0    
Feb 21 14:53 NNW 6 1.5 Heavy Rain and Fog/Mist SCT008 OVC015 48 47     96% 45   30.11 30.11 0 0  
Feb 21 14:35 ENE 10 3 Light Rain SCT008 OVC016 49 47     93% 45   30.08   0    
Feb 21 14:02 N 5 5 Rain and Fog/Mist BKN009 BKN017 OVC036 49 47     93% 47   30.11   0    
Feb 21 13:53 NNE 8 10 Cloudy BKN010 OVC036 49 46     90% 45   30.11 30.11 0    
Feb 21 13:14 N 10 2.5 Light Rain and Fog/Mist BKN010 OVC016 48 46     93% 43   30.12   0    
Feb 21 12:53 N 11 3 Light Rain and Fog/Mist BKN010 OVC016 49 46     90% 44   30.13 30.13 0    
Feb 21 12:41 N 9 2.5 Light Rain and Fog/Mist SCT010 OVC016 49 47     93% 45   30.13   0    
Feb 21 11:53 NE 9 10 Light Drizzle FEW012 OVC019 49 46     90% 45   30.13 30.12 0   0
Feb 21 11:17 NNE 8 10 Light Rain OVC021 49 46     90% 45   30.15   0    
Feb 21 10:53 NE 8 10 Light Rain BKN011 OVC021 49 45     86% 45   30.16 30.15 0    
Feb 21 09:53 NE 10 10 Cloudy OVC010 49 45     86% 45   30.15 30.14      
Feb 21 08:53 NNE 10 10 Cloudy SCT010 OVC014 48 45     89% 43   30.15 30.14      
Feb 21 07:53 NE 10 7 Cloudy OVC007 46 44     93% 41   30.12 30.12      
Feb 21 06:53 N 11 8 Cloudy OVC006 47 45     93% 42   30.12 30.12      
Feb 21 05:53 N 6 10 Cloudy OVC005 48 47     96% 45   30.12 30.12 0   0
Feb 21 04:53 N 7 5 Fog/Mist OVC005 49 48     97% 46   30.09 30.08      
Feb 21 04:46 N 7 5 Fog/Mist OVC005 49 48     97% 46   30.08        
Feb 21 04:04 NNW 9 3 Clear   50 49     96%     30.06        
Feb 21 03:53 NNW 7 2.5 Clear   50 50     100%     30.06 30.06      
Feb 21 03:12 NW 8 3 Fog/Mist OVC004 51 51     100%     30.04        
Feb 21 03:01 NNW 9 2.5 Fog/Mist OVC004 51 51     100%     30.03        
Feb 21 02:53 NNW 7 3 Fog/Mist OVC004 52 51     97%     30.03 30.02      
Feb 21 02:50 NNW 7 3 Fog/Mist OVC004 52 52     100%     30.02        
Feb 21 02:15 NNW 6 4 Fog/Mist BKN005 OVC009 53 52     96%     30.02        
Feb 21 02:04 NNW 9 4 Fog/Mist BKN003 OVC009 53 52     96%     30.02        
Feb 21 01:53 NW 7 3 Fog/Mist OVC005 53 52     96%     30.02 30.02      
Feb 21 01:39 WNW 7 4 Fog/Mist BKN007 OVC012 53 52     96%     30.03        
Feb 21 01:14 WNW 6 6 Fog/Mist BKN008 OVC012 53 53     100%     30.03        
Feb 21 00:53 NNW 6 10 Cloudy OVC010 54 53     97%     30.02 30.01      
Feb 21 00:27 WNW 3 10 Cloudy FEW006 OVC011 54 53     97%     30.03        
Feb 21 00:19 W 3 10 Cloudy OVC011 54 53     97%     30.02        
Feb 21 00:01 N 3 4 Fog/Mist OVC009 54 54     100%     30.01        
Feb 20 23:53 N 6 2 Fog/Mist OVC007 54 54     100%     30.01 30 0   0
Feb 20 23:32 NW 7 2 Light Drizzle and Fog/Mist OVC005 54 54     100%     30   0    
Feb 20 23:30 NW 8 1 Light Drizzle and Fog/Mist OVC003 54 54     100%     30   0    
Feb 20 22:53 SW 3 0.75 Light Drizzle and Fog/Mist OVC003 54 53     97%     30.01 30.01 0    
Feb 20 22:24 Calm 0.75 Light Drizzle and Fog/Mist OVC003 54 54     100%     30.01   0    
Feb 20 21:53 ESE 6 2 Fog/Mist OVC003 54 54     100%     30 29.99 0    
Feb 20 21:43 E 5 2 Clear   54 54     100%     30   0    
Feb 20 20:53 ESE 5 2 Clear   55 55     100%     29.99 29.98 0 0  
Feb 20 20:22 ESE 5 2 Fog/Mist OVC007 55 54     96%     29.98   0    
Feb 20 19:53 Calm 5 Fog/Mist OVC006 55 54     96%     29.98 29.97 0    
Feb 20 18:53 Calm 10 Cloudy OVC007 56 55     97%     29.95 29.95      
Feb 20 18:36 Calm 10 Cloudy OVC007 56 55     97%     29.94        
Feb 20 18:09 Calm 10 Cloudy OVC008 56 55     97%     29.93        
Feb 20 17:53 SSE 6 10 Cloudy OVC010 56 54     93%     29.93 29.93     0
Feb 20 17:09 S 8 10 Cloudy BKN012 BKN065 OVC090 56 54     93%     29.91        
Feb 20 16:53 SSE 15 10 Cloudy FEW009 BKN060 OVC090 56 54     93%     29.91 29.9 0    
Feb 20 16:07 SSE 16 10 Cloudy FEW007 SCT015 OVC060 54 53     97%     29.9   0    
Feb 20 16:00   10 Cloudy SCT007 BKN015 OVC060 54 53     97%     29.9   0    
Feb 20 15:53 SSE 15 10 Light Rain SCT009 BKN015 OVC060 54 53     97%     29.9 29.9 0    
Feb 20 15:38 SSE 14 10 Light Rain SCT007 BKN015 OVC055 54 52     93%     29.91   0    
Feb 20 15:31 SSE 10 9 Light Rain BKN009 BKN013 OVC019 54 52     93%     29.92   0    
Feb 20 15:11 SE 10 9 Light Rain FEW009 BKN014 OVC020 53 52     96%     29.91   0    
Feb 20 15:05 SSE 9 10 Light Rain BKN016 OVC021 53 52     96%     29.91   0    
Feb 20 14:53 SE 10 10 Light Rain BKN014 OVC021 53 52     96%     29.9 29.9 0 0  
Feb 20 14:39 SE 10 10 Light Rain OVC014 53 52     96%     29.91   0    
Feb 20 14:27 SE 10 10 Light Rain OVC015 53 51     93%     29.9   0    
Feb 20 13:57 ESE 7 10 Light Rain FEW006 OVC014 52 51     97%     29.91   0    
Feb 20 13:53 ESE 5 6 Light Rain and Fog/Mist FEW008 OVC016 52 51     97%     29.92 29.92 0    
Feb 20 13:46 SE 7 2 Rain and Fog/Mist FEW008 OVC013 52 51     97%     29.92   0    
Feb 20 13:32 Calm 2 Thunderstorms and Rain and Fog/Mist BKN007 OVC014 51 51     100%     29.94   0    
Feb 20 13:24 Calm 0.75 Thunderstorms and Heavy Rain and Fog/Mist BKN014 OVC090 51 51     100%     29.91   0    
Feb 20 13:22 ESE 5 2 Thunderstorms and Heavy Rain and Fog/Mist BKN014 OVC090 51 51     100%     29.91   0    
Feb 20 13:19 ESE 6 6 Light Rain and Fog/Mist BKN014 OVC090 51 50     96%     29.9   0    
Feb 20 13:10 SE 11 6 Light Rain and Fog/Mist SCT008 OVC016 52 50     93%     29.9   0    
Feb 20 12:53 ESE 10 10 Light Rain SCT008 BKN011 OVC018 51 50     96%     29.91 29.91 0    
Feb 20 12:45 ENE 6 10 Light Rain BKN006 BKN013 OVC018 51 50     96%     29.93   0    
Feb 20 12:20 SSE 10 4 Rain and Fog/Mist OVC011 51 50     96%     29.95   0    
Feb 20 12:00 SSW 9 2.5 Thunderstorms and Rain and Fog/Mist FEW007 BKN014 OVC020 51 50     96%     29.99   0    
Feb 20 11:53   2.5 Light Rain and Fog/Mist SCT007 OVC015 52 50     93%     29.95 29.95 0   0
Feb 20 11:43 S 10 2.5 Light Rain and Fog/Mist BKN007 OVC013 52 51     97%     29.98   0    
Feb 20 11:23 WNW 10 8 Light Rain OVC008 51 50     96%     30.01   0    
Feb 20 10:53 SE 11 4 Thunderstorms and Rain and Fog/Mist OVC008 50 48     93%     29.92 29.92 0    
Feb 20 10:43 SE 17 10 Thunderstorms and Rain OVC010 51 48     89%     29.92   0    
Feb 20 09:53 SE 17 10 Light Rain OVC010 51 48     89%     29.93 29.93 0    
Feb 20 09:44 SSE 20 10 Cloudy and Windy OVC010 51 48     89%     29.94        
Feb 20 08:53 SE 18 10 Cloudy OVC009 51 48     89%     29.93 29.93   0  
Feb 20 07:53   10 Cloudy OVC009 50 48     93%     29.96 29.96 0    
Feb 20 06:53   10 Cloudy OVC009 50 47     89%     29.94 29.94      
Feb 20 05:53   10 Cloudy OVC008 49 47     93%     29.95 29.95     0
Feb 20 04:53   10 Cloudy OVC008 49 46     90%     29.94 29.94      
Feb 20 03:53   10 Cloudy OVC008 48 46     93%     29.94 29.94      
Feb 20 02:53 SE 20 10 Cloudy and Windy OVC008 47 45     93% 40   29.98 29.98 0 0  
Feb 20 02:09   10 Cloudy OVC009 46 44     93%     29.98   0    
Feb 20 01:53   10 Cloudy OVC010 47 44     90%     30 30      
Feb 20 00:53   10 Cloudy OVC011 46 44     93%     30.03 30.03      
Feb 19 23:53   10 Cloudy OVC012 45 44     97%     30.05 30.06 0   1
Feb 19 22:53   10 Cloudy OVC011 44 42     93%     30.08 30.09 0    
Feb 19 22:05 ESE 14 6 Clear   45 43     93% 39   30.13   0    
Feb 19 21:53 SE 14 3 Clear   45 43     93% 39   30.13 30.14 0    
Feb 19 21:43   3 Light Rain and Fog/Mist FEW008 OVC015 45 43     93%     30.13   0    
Feb 19 21:37   3 Light Rain and Fog/Mist BKN011 OVC015 45 43     93%     30.14   0    
Feb 19 21:04 SE 13 3 Thunderstorms and Heavy Rain and Fog/Mist FEW009 SCT013 OVC019 46 44     93% 40   30.14   0    
Feb 19 20:53 ESE 15 3 Thunderstorms and Heavy Rain and Fog/Mist FEW010 SCT015 OVC022 46 44     93% 40   30.13 30.13 0 1  
Feb 19 20:34 ESE 14 3 Thunderstorms and Heavy Rain and Fog/Mist SCT013 OVC020 46 44     93% 40   30.14   0    
Feb 19 20:21 E 11 3 Light Rain and Fog/Mist SCT013 BKN017 OVC022 46 44     93% 41   30.14   0    
Feb 19 20:13 E 10 3 Light Rain and Fog/Mist BKN015 OVC022 45 44     97% 40   30.13   0    
Feb 19 19:53 ESE 10 3 Thunderstorms and Rain and Fog/Mist SCT011 OVC019 45 44     97% 40   30.15 30.15 0    
Feb 19 18:53 E 16 3 Thunderstorms and Rain and Fog/Mist SCT041 BKN048 OVC060 45 43     93% 38   30.14 30.14 0    
Feb 19 18:03 E 13 3 Thunderstorms and Heavy Rain and Fog/Mist SCT010 BKN037 OVC048 44 42     93% 38   30.19   0    
Feb 19 17:53 E 11 5 Thunderstorms and Heavy Rain and Fog/Mist BKN010 BKN039 OVC060 44 42     93% 38   30.18 30.19 0   1
Feb 19 17:29 E 14 4 Thunderstorms and Rain and Fog/Mist BKN008 OVC060 43 42     97% 36   30.18   0    
Feb 19 17:26 E 15 2 Thunderstorms and Rain and Fog/Mist FEW008 OVC060 43 42     97% 36   30.18   0    
Feb 19 17:01 E 14 2 Light Rain and Fog/Mist SCT009 BKN048 OVC060 43 41     93% 36   30.17   0    
Feb 19 16:53 ESE 15 2 Thunderstorms and Rain and Fog/Mist SCT007 BKN012 OVC039 43 41     93% 36   30.19 30.2 0    
Feb 19 16:35 ESE 9 2 Thunderstorms and Rain and Fog/Mist SCT010 BKN055 OVC080 43 41     93% 38   30.23   0    
Feb 19 16:12 E 10 5 Thunderstorms and Rain and Fog/Mist FEW055 OVC080 42 41     96% 36   30.25   0    
Feb 19 15:57   6 Light Rain and Fog/Mist FEW055 FEW070 OVC090 42 40     92%     30.23   0    
Feb 19 15:53   2.5 Thunderstorms and Rain and Fog/Mist FEW055 SCT075 OVC100 42 40     92%     30.24 30.24 0    
Feb 19 15:17 E 9 1.75 Thunderstorms and Rain and Fog/Mist FEW006 BKN047 OVC070 41 40     96% 35   30.29   0    
Feb 19 14:53 E 7 3 Thunderstorms and Rain and Fog/Mist BKN055 OVC075 41 39     93% 36   30.32 30.33 0 1  
Feb 19 13:53 3 2.5 Thunderstorms and Rain and Fog/Mist FEW010 BKN040 OVC060 40 39     97% 38   30.36 30.37 0    
Feb 19 12:53 E 8 3 Thunderstorms and Rain and Fog/Mist SCT008 SCT027 OVC095 39 38     96% 33   30.3 30.31 0    
Feb 19 12:47 ESE 11 3 Thunderstorms and Rain and Fog/Mist FEW010 BKN075 OVC095 39 37     93% 32   30.31   0    
Feb 19 12:20 E 8 3 Light Rain and Fog/Mist FEW007 SCT085 OVC100 38 37     97% 32   30.34   0    
Feb 19 11:53 E 8 6 Rain and Fog/Mist SCT070 OVC090 38 36     92% 32   30.4 30.4 0   0
Feb 19 10:53 ENE 9 10 Light Rain OVC070 38 33     82% 31   30.42 30.43 0    
Feb 19 09:53 N 8 8 Light Rain BKN070 OVC085 37 32     82% 31   30.43 30.44 0    
Feb 19 08:53 NE 7 10 Light Rain OVC075 36 31     82% 30   30.42 30.43 0 0  
Feb 19 07:53 NE 9 10 Cloudy OVC090 36 31     82% 29   30.41 30.42 0    
Feb 19 06:59 ENE 9 10 Light Rain BKN090 OVC110 35 30     82% 28   30.41   0    
Feb 19 06:53 ENE 9 10 Light and Rain BKN090 OVC110 35 29     78% 28   30.41 30.42 0    
Feb 19 06:48 ENE 8 10 Light and Rain BKN090 OVC110 36 30     81% 29   30.43   0    
Feb 19 05:53 N 6 8 Clear   34 30     85% 29   30.43 30.44 0    
Feb 19 05:45 N 5 8 Clear   34 30     85% 30   30.44   0    
Feb 19 04:53   10 Light Rain FEW049 SCT075 OVC090 36 28     73%     30.42 30.42 0    
Feb 19 03:53 ENE 10 10 Mostly Cloudy BKN110 36 27     70% 29   30.4 30.4      
Feb 19 02:53 NE 9 10 Mostly Cloudy BKN100 36 26     67% 29   30.41 30.42      
Feb 19 01:53 NE 13 10 Clear CLR 35 26     69% 26   30.4 30.41      
Feb 19 00:53 NE 11 10 Clear CLR 36 27     70% 28   30.43 30.44      
Feb 18 23:53 NNE 11 10 Cloudy BKN160 OVC250 37 27     67% 29   30.42 30.43      
Feb 18 22:53 NE 10 10 Cloudy OVC170 37 27     67% 30   30.44 30.44      
Feb 18 21:53 NNE 13 10 Cloudy OVC180 37 27     67% 29   30.43 30.44      
Feb 18 20:53 NNE 9 10 Cloudy OVC190 38 27     64% 31   30.42 30.43      
Feb 18 19:53 NNE 13 10 Cloudy OVC180 40 29     65% 32   30.39 30.4      
Feb 18 18:53 N 11 10 Cloudy OVC190 42 30     62% 36   30.38 30.38      
Feb 18 17:53 NNE 10 10 Mostly Cloudy BKN200 BKN250 43 31     62% 37   30.34 30.34      
Feb 18 16:53 NNE 6 10 Mostly Cloudy BKN200 46 34     63% 43   30.32 30.32      
Feb 18 15:53 NNE 13 10 Mostly Cloudy BKN200 46 32     58% 40   30.31 30.32      
May 15 04:53 Calm 10 Mostly Cloudy BKN065 70 68     93%     29.98 29.96      
May 14 10:53 N 8 10 Mostly Clear FEW050 88 64     45%   89 30.07 30.04      
May 11 20:53 S 8 10 Clear CLR 75 60     60%   75 30.05 30.03      
May 11 16:53 SW 11 10 Mostly Clear FEW090 89 57     34%   88 30.04 30.01      
Jun 12 04:53 SE 7 10 Partly Cloudy SCT025 72 70     93%   73 30.13 30.1      
Jun 11 22:53 ESE 3 10 Clear CLR 78 70     76%   79 30.12 30.09      
Jun 10 17:53 S 10 10 Partly Cloudy FEW060 SCT 85 61     45%   85 30.03 30.01      
Jun 09 19:53 W 3 10 Mostly Clear FEW080 77 60     56%   77   29.92      
Jun 08 19:53 NNW 6 10 Partly Cloudy SCT250 73 56     55%   73 29.89 29.87      
Jun 07 10:53 NE 17 10 Mostly Clear FEW050 FEW250 78 53     42%   78 29.89 29.87